Temperature
14 14 15 15 15 15 15 15 16 16 16 16 16 16 16 15 15 15 16 16 16 16 16 16 16 16 16 16 16 16 16 16 16 16 16 15 15 15
14 14 15 15 15 15 15 15 15 15 15 15 15 15 15 15 15 15 15 16 16 16 15 15 15 15 15 15 15 16 16 16 16 16 16 15 15 15
14 14 14 14 14 15 15 15 15 15 15 15 15 15 15 15 15 15 15 15 15 15 15 15 14 14 14 15 15 15 15 16 16 16 16 15 15 15
14 14 14 14 14 14 14 14 14 14 14 14 14 14 14 14 14 14 14 14 14 15 14 14 14 14 14 14 14 15 15 15 16 16 16 16 15 14
13 13 13 13 13 13 13 14 14 14 14 14 14 14 13 13 13 13 13 14 14 14 13 13 13 13 13 14 14 14 14 15 15 16 16 15 15 14
12 13 13 13 13 13 13 13 14 14 14 14 14 13 13 13 13 13 13 13 13 13 13 13 13 13 13 13 13 13 14 14 15 15 15 15 15 14
12 13 12 12 13 13 13 13 13 13 13 13 13 12 12 13 12 12 12 12 13 12 12 12 12 12 12 12 13 13 13 14 14 15 15 14 14 14
12 12 12 12 12 12 12 13 13 13 13 12 12 12 12 12 12 12 12 12 12 12 12 11 11 11 12 12 12 12 13 13 13 14 14 14 14 14
12 12 12 12 12 12 12 12 12 12 12 12 12 12 12 12 12 12 12 12 11 11 12 11 11 11 11 11 11 12 12 12 13 13 13 13 13 13
11 11 12 12 12 12 11 11 12 12 12 12 12 12 11 11 12 12 12 12 11 11 11 11 11 11 11 11 11 11 12 12 12 12 12 12 12 12
11 11 11 11 11 11 11 11 12 11 12 12 12 12 12 11 11 11 11 11 11 11 11 11 11 11 11 11 11 11 11 11 11 11 11 11 11 11
11 11 11 11 11 11 11 11 11 12 12 12 12 12 11 11 11 11 11 10 10 10 10 11 11 11 11 11 11 11 11 11 11 11 11 10 10 10
11 11 11 11 11 11 11 11 11 11 12 12 12 11 11 11 10 10 10 10 10 10 10 10 10 10 10 10 10 10 10 10 10 11 11 10 10 10
11 11 11 11 11 10 11 10 11 11 11 11 11 11 11 10 10 10 10 10 10 10 10 10 10 10 10 10 10 10 10 10 10 10 10 10 10 10
11 11 11 11 10 10 10 10 10 10 10 10 10 10 10 10 10 10 10 10 10 10 10 10 10 10 10 10 10 10 10 10 10 10 10 10 10 10
11 11 11 10 10 10 10 10 10 9 9 9 9 9 9 10 9 9 9 9 10 10 9 9 9 9 9 9 9 9 9 9 9 9 9 9 9 10
10 11 10 10 10 10 10 10 10 9 9 9 9 9 9 9 9 9 9 9 9 9 9 9 9 9 9 9 9 9 9 9 9 9 9 9 9 9
10 10 11 11 11 11 11 10 9 9 9 8 8 8 8 8 8 8 8 8 8 9 9 8 8 8 8 8 8 8 8 8 8 8 9 9 9 9
11 11 11 12 11 11 11 10 10 9 8 8 8 8 8 8 8 8 8 8 8 8 8 8 7 7 7 7 8 8 8 8 8 8 8 8 8 8
11 11 11 11 11 11 11 10 9 9 8 8 8 8 8 8 8 8 8 7 7 8 8 8 7 7 7 7 8 7 7 7 7 7 7 7 7 8
11 11 11 11 11 11 10 10 9 9 9 8 8 8 7 7 7 7 7 7 7 7 7 7 7 7 7 7 8 7 7 7 7 7 7 7 7 7
11 12 11 11 11 10 10 10 10 9 9 9 8 8 7 7 7 7 7 7 7 7 6 7 7 7 7 7 7 7 7 7 7 7 6 6 6 6
11 12 11 11 11 10 10 10 10 9 9 9 8 7 7 7 6 6 6 6 6 6 6 6 6 6 6 7 7 7 6 6 7 6 6 6 6 6
Wind_Speed
6 6 4 3 2 1 1 1 1 2 3 4 4 4 3 2 2 3 2 2 5 6 7 7 7 8 9 9 11 12 14 16 17 18 19 24 30 34
5 4 2 1 0 1 1 1 0 1 2 3 4 5 5 5 3 5 3 4 7 8 8 8 8 8 8 9 11 13 15 17 20 21 22 23 28 33
5 6 6 5 4 4 3 3 2 2 2 3 3 3 4 5 5 5 5 3 5 9 10 9 8 7 7 8 11 13 15 17 20 22 24 24 27 31
7 7 7 6 6 5 4 5 4 3 3 3 3 3 4 4 5 6 5 5 3 5 9 8 7 7 7 9 11 12 15 16 18 21 23 25 28 32
8 9 9 8 7 6 6 6 5 4 2 2 3 3 4 5 5 5 6 6 6 4 3 5 5 6 8 9 11 12 14 16 17 18 20 23 26 31
11 10 9 8 6 7 8 8 7 6 5 4 6 6 7 8 7 6 5 6 6 7 6 4 2 4 7 9 10 11 13 15 16 16 18 21 25 29
9 9 9 9 10 8 8 7 8 8 7 7 7 7 7 8 8 6 5 4 3 5 5 5 4 4 5 7 8 10 12 13 14 13 16 20 24 28
7 7 9 9 7 8 9 10 10 9 7 7 6 6 7 6 7 7 5 5 3 4 3 4 5 5 6 5 9 10 11 11 10 7 9 15 21 25
9 9 10 11 11 7 2 3 6 10 9 7 6 5 5 6 7 8 6 4 3 3 2 3 4 5 5 7 11 10 11 11 8 2 5 11 16 20
9 9 9 9 12 11 9 9 7 7 6 5 3 4 4 5 6 7 6 3 2 3 3 3 3 2 4 4 12 12 11 10 8 6 9 14 18 20
10 10 9 8 13 15 9 8 8 7 4 4 5 7 7 7 6 7 9 7 5 4 6 4 3 2 2 4 6 11 12 11 9 8 9 13 16 16
8 9 11 9 10 12 7 7 7 7 9 9 4 2 4 6 7 7 7 7 6 5 7 7 5 4 3 1 3 4 5 8 10 9 8 10 12 8
7 7 5 7 9 9 7 5 6 7 7 5 4 5 6 6 6 5 5 4 4 4 6 6 5 5 4 3 1 2 3 3 3 5 7 8 9 6
7 7 5 5 7 8 6 9 13 11 6 6 6 6 6 6 6 6 5 4 1 2 3 5 4 5 5 4 4 2 2 2 2 3 3 5 5 6
6 7 7 4 3 4 4 7 8 7 7 6 6 6 6 6 6 6 7 7 4 4 7 6 6 6 5 5 5 5 3 2 1 1 2 2 2 2
6 5 4 2 3 5 4 2 2 4 5 5 6 6 6 6 6 6 6 7 6 5 6 10 6 6 5 5 5 6 6 5 4 2 1 1 2 2
5 4 3 4 4 4 3 3 5 5 5 5 5 6 6 6 5 5 5 6 6 6 6 7 7 6 5 6 5 5 5 5 5 5 3 2 1 1
1 4 6 6 5 3 3 5 6 5 4 5 5 5 6 5 5 5 5 6 6 6 5 6 8 7 5 4 7 6 6 6 5 5 4 3 3 2
2 5 4 3 3 3 4 5 6 5 3 3 5 5 5 5 5 5 5 5 6 6 5 5 6 6 7 7 5 7 6 6 6 6 5 4 3 1
5 7 3 4 3 3 5 5 5 6 4 3 4 4 5 5 4 5 4 4 5 5 5 5 5 5 4 4 3 3 5 5 5 5 6 4 2 3
8 7 4 5 5 5 5 4 3 5 3 1 3 3 4 4 4 5 5 6 5 5 6 6 5 8 5 4 5 3 2 2 1 2 4 5 4 2
7 5 5 5 5 5 5 4 3 4 5 2 4 4 4 4 5 6 5 6 5 6 6 6 7 7 6 6 6 5 4 2 1 1 0 1 2 3
6 5 6 5 5 4 4 5 4 3 3 3 4 3 4 3 4 4 5 5 5 6 6 7 7 6 6 6 6 6 8 7 4 1 1 2 5 9
Wind_Direction
212 219 218 219 233 266 291 293 320 346 9 30 27 51 31 45 62 320 311 218 214 223 229 238 246 254 260 263 264 262 261 259 256 251 242 226 215 210
187 174 147 121 84 268 255 230 94 33 10 24 28 21 18 358 14 327 306 217 222 231 239 243 250 258 266 271 271 269 265 260 254 247 241 230 216 208
147 124 102 66 41 26 4 25 43 46 23 31 40 30 26 356 338 326 305 247 229 225 233 240 250 264 275 281 281 280 276 270 260 248 237 227 214 203
94 89 84 74 58 34 9 27 36 51 49 49 32 26 28 357 350 340 343 340 316 230 224 238 256 275 286 290 291 291 288 283 271 252 234 221 209 199
81 75 66 56 40 18 34 31 28 26 37 75 73 44 31 8 4 0 14 5 353 353 231 238 264 291 297 299 300 301 299 293 280 258 232 214 201 193
69 67 63 57 38 22 47 29 22 18 31 47 54 44 25 6 8 358 15 18 16 11 9 14 352 333 323 317 314 313 313 306 291 265 234 208 193 185
87 84 76 71 61 54 62 42 37 36 31 36 44 39 21 8 3 349 359 357 40 23 8 11 0 0 353 350 349 343 333 320 303 273 233 204 187 179
89 102 91 60 57 70 78 66 58 52 34 34 39 30 21 5 349 342 344 353 5 13 1 4 1 9 10 11 7 6 357 344 326 285 228 198 181 169
59 54 62 43 28 9 72 123 78 64 56 59 41 15 12 356 346 344 352 13 9 348 337 356 360 8 13 18 16 23 24 17 7 24 147 149 147 142
70 72 66 42 22 8 29 33 37 40 33 46 29 351 358 341 339 341 353 24 38 21 354 351 357 355 352 10 19 28 38 42 40 72 112 123 126 128
69 61 68 52 23 21 28 25 18 8 347 298 283 297 314 329 344 1 5 11 8 21 8 355 340 319 345 5 13 29 41 52 62 80 105 118 122 124
107 85 68 62 39 27 23 21 12 344 331 328 324 331 22 48 47 40 19 8 6 8 0 350 348 343 337 345 1 7 30 49 68 86 108 125 133 133
132 108 82 63 47 23 16 24 349 317 303 319 20 37 37 34 26 22 20 18 17 7 355 350 343 346 335 319 336 5 10 20 44 77 106 140 162 170
84 101 108 75 42 12 9 1 357 357 359 15 27 25 26 23 360 355 354 348 359 60 19 9 354 349 347 349 346 347 7 15 28 58 81 124 164 205
94 111 122 106 11 315 326 350 8 19 9 12 18 14 6 1 356 3 358 347 353 50 45 30 19 7 17 20 12 3 356 6 8 43 84 112 129 153
131 129 149 184 272 296 294 307 77 48 13 13 14 3 354 0 12 19 6 349 358 9 25 28 22 19 20 30 41 30 23 15 3 20 102 139 148 153
145 163 201 214 225 234 203 107 76 51 26 21 21 9 0 4 14 17 11 360 357 358 9 20 11 8 38 28 31 27 21 20 22 21 21 30 54 112
134 229 228 218 195 161 102 106 97 71 25 22 32 16 1 2 11 8 27 8 351 356 13 33 21 3 354 40 28 14 12 6 8 24 25 20 15 79
210 253 244 150 116 116 98 86 94 95 44 39 48 20 358 3 13 7 42 13 349 350 5 42 33 12 1 357 6 23 18 9 5 7 9 7 357 51
233 248 200 128 114 88 86 79 87 89 53 31 64 29 0 0 15 1 23 24 340 344 1 32 29 357 332 316 335 32 35 26 6 355 351 342 4 78
220 229 172 150 147 131 119 116 111 110 107 324 78 50 14 4 14 358 1 4 348 6 9 5 2 339 322 341 359 15 51 62 34 355 345 343 347 23
220 189 152 144 135 134 137 151 168 153 156 165 87 62 35 19 2 357 4 358 1 15 5 352 355 349 346 355 353 355 9 10 56 58 337 305 330 347
213 164 148 147 151 160 175 183 185 175 153 133 104 81 54 20 349 354 5 5 2 11 8 357 353 344 346 351 358 359 5 359 357 29 89 228 261 268
Height
1461 1465 1467 1469 1470 1471 1471 1472 1472 1472 1472 1473 1473 1472 1471 1471 1470 1469 1467 1466 1466 1466 1466 1467 1467 1467 1468 1468 1469 1471 1472 1474 1475 1477 1479 1481 1483 1487
1460 1463 1465 1467 1468 1470 1470 1471 1471 1471 1471 1472 1471 1470 1470 1469 1468 1466 1464 1463 1462 1462 1462 1462 1462 1462 1462 1462 1462 1463 1464 1465 1467 1468 1470 1472 1475 1479
1459 1462 1464 1465 1467 1468 1469 1469 1469 1469 1470 1470 1470 1469 1468 1467 1465 1463 1462 1460 1459 1459 1459 1459 1458 1457 1457 1456 1456 1456 1456 1457 1458 1459 1461 1463 1466 1470
1459 1461 1463 1465 1466 1467 1468 1468 1468 1468 1468 1469 1469 1468 1467 1466 1463 1462 1460 1458 1456 1456 1455 1455 1454 1453 1452 1451 1450 1449 1449 1449 1449 1450 1451 1453 1456 1461
1460 1461 1463 1465 1466 1467 1467 1467 1467 1468 1469 1469 1469 1469 1467 1466 1464 1461 1459 1456 1454 1453 1452 1451 1450 1448 1447 1445 1443 1443 1442 1442 1442 1441 1442 1445 1448 1453
1461 1463 1464 1466 1467 1467 1467 1467 1468 1468 1469 1469 1469 1468 1467 1465 1463 1461 1458 1456 1454 1451 1449 1447 1446 1444 1442 1440 1438 1437 1436 1435 1435 1434 1435 1437 1441 1446
1464 1466 1467 1468 1469 1469 1469 1469 1469 1468 1469 1469 1469 1468 1467 1464 1463 1461 1460 1458 1454 1451 1448 1445 1443 1440 1439 1437 1434 1433 1431 1430 1429 1429 1429 1431 1434 1438
1467 1469 1470 1471 1471 1471 1471 1471 1471 1471 1470 1470 1470 1470 1468 1467 1464 1462 1461 1458 1455 1453 1449 1445 1442 1439 1437 1435 1432 1430 1428 1427 1426 1425 1425 1426 1428 1431
1470 1471 1472 1472 1473 1473 1473 1473 1473 1473 1473 1473 1472 1471 1470 1468 1466 1463 1461 1459 1456 1453 1450 1446 1443 1440 1437 1434 1432 1429 1428 1426 1424 1423 1422 1423 1425 1427
1472 1472 1473 1474 1474 1475 1474 1474 1474 1474 1474 1474 1474 1473 1472 1470 1467 1466 1463 1460 1457 1455 1451 1448 1445 1442 1439 1435 1432 1430 1428 1426 1425 1424 1424 1425 1427 1430
1473 1474 1475 1476 1476 1476 1476 1475 1475 1475 1475 1475 1474 1473 1472 1470 1468 1466 1463 1460 1459 1457 1454 1451 1448 1444 1441 1438 1435 1432 1429 1428 1428 1427 1427 1429 1432 1436
1475 1475 1476 1477 1477 1477 1476 1476 1476 1476 1475 1475 1475 1474 1473 1471 1469 1467 1464 1462 1460 1458 1456 1453 1450 1447 1444 1441 1438 1435 1432 1430 1430 1430 1432 1433 1436 1440
1475 1476 1477 1478 1478 1477 1477 1477 1477 1477 1476 1476 1475 1474 1473 1472 1470 1468 1466 1464 1462 1460 1458 1455 1452 1449 1447 1444 1441 1438 1435 1434 1433 1433 1434 1437 1440 1443
1477 1477 1478 1479 1479 1479 1479 1479 1478 1478 1477 1476 1476 1475 1474 1472 1471 1470 1468 1466 1464 1462 1460 1457 1454 1452 1449 1446 1444 1442 1439 1437 1436 1435 1436 1438 1441 1444
1478 1479 1480 1480 1481 1481 1481 1481 1480 1479 1478 1477 1476 1476 1475 1474 1472 1470 1469 1467 1465 1464 1461 1459 1457 1454 1451 1449 1447 1444 1442 1440 1438 1437 1437 1437 1440 1442
1478 1479 1480 1481 1481 1481 1482 1481 1481 1480 1480 1479 1478 1477 1476 1474 1473 1471 1470 1468 1467 1465 1463 1461 1458 1456 1454 1452 1449 1447 1445 1443 1441 1438 1438 1438 1439 1440
1478 1479 1480 1481 1481 1481 1482 1481 1481 1480 1480 1480 1479 1478 1477 1476 1474 1473 1472 1470 1469 1467 1465 1462 1460 1457 1456 1454 1452 1450 1449 1447 1445 1442 1441 1440 1439 1440
1477 1478 1479 1480 1481 1482 1482 1482 1480 1480 1480 1480 1480 1479 1478 1477 1476 1475 1473 1472 1470 1469 1466 1463 1461 1458 1457 1456 1455 1453 1451 1449 1447 1446 1444 1443 1442 1441
1475 1476 1478 1479 1481 1482 1482 1482 1481 1480 1481 1481 1481 1480 1480 1479 1478 1477 1475 1474 1472 1470 1469 1466 1463 1461 1459 1458 1457 1455 1453 1451 1449 1448 1446 1445 1444 1443
1472 1474 1476 1478 1479 1481 1481 1481 1482 1481 1482 1482 1482 1481 1481 1480 1479 1478 1477 1475 1474 1472 1470 1468 1465 1463 1461 1460 1458 1456 1454 1452 1450 1448 1447 1446 1445 1444
1470 1472 1474 1476 1477 1479 1479 1480 1481 1482 1482 1482 1482 1482 1482 1481 1480 1479 1478 1476 1475 1473 1471 1470 1468 1466 1463 1461 1460 1458 1455 1453 1451 1449 1447 1446 1445 1444
1468 1470 1472 1474 1475 1477 1478 1479 1480 1481 1481 1482 1482 1482 1482 1481 1480 1479 1478 1477 1475 1474 1472 1470 1468 1466 1464 1462 1460 1458 1456 1454 1452 1450 1448 1447 1445 1444
1465 1467 1469 1471 1473 1475 1476 1478 1479 1480 1481 1481 1481 1481 1480 1480 1480 1479 1478 1476 1475 1474 1472 1470 1468 1466 1464 1463 1461 1459 1457 1455 1453 1451 1449 1447 1445 1444